This is the latest recevied weather packets stored in our database for station/object EB1BWO-11. If no packets are shown the sender has not sent any weather packets the latest 10 day(s).
| Time | Temp. | Humidity | Pressure | Rain* | Wind** | Luminosity | Snow |
|---|---|---|---|---|---|---|---|
| 1788403981 | 16.67° C | 67% | 1026.8 hPa | - | - | - | - |
| 1788403081 | 16.67° C | 67% | 1026.7 hPa | - | - | - | - |
| 1788402180 | 17.22° C | 66% | 1026.7 hPa | - | - | - | - |
| 1788401280 | 17.22° C | 66% | 1026.7 hPa | - | - | - | - |
| 1788400380 | 17.78° C | 66% | 1026.8 hPa | - | - | - | - |
| 1788399480 | 17.78° C | 66% | 1026.7 hPa | - | - | - | - |
| 1788398580 | 17.78° C | 66% | 1026.7 hPa | - | - | - | - |
| 1788397680 | 18.33° C | 65% | 1026.7 hPa | - | - | - | - |
| 1788396780 | 18.33° C | 65% | 1026.7 hPa | - | - | - | - |
| 1788394979 | 18.33° C | 67% | 1026.9 hPa | - | - | - | - |
| 1788394079 | 18.33° C | 69% | 1026.9 hPa | - | - | - | - |
| 1788393179 | 18.33° C | 68% | 1026.9 hPa | - | - | - | - |
| 1788392279 | 19.44° C | 67% | 1027 hPa | - | - | - | - |
| 1788391379 | 20° C | 67% | 1027 hPa | - | - | - | - |
| 1788390479 | 20.56° C | 66% | 1027.1 hPa | - | - | - | - |
| 1788389579 | 20.56° C | 65% | 1027.2 hPa | - | - | - | - |
| 1788388678 | 21.11° C | 64% | 1027.3 hPa | - | - | - | - |
| 1788387778 | 21.11° C | 65% | 1027.2 hPa | - | - | - | - |
| 1788386878 | 21.11° C | 64% | 1027.2 hPa | - | - | - | - |
| 1788386000 | 21.11° C | 64% | 1027.2 hPa | - | - | - | - |
| 1788385078 | 21.11° C | 65% | 1027.3 hPa | - | - | - | - |
| 1788384202 | 21.67° C | 64% | 1027.1 hPa | - | - | - | - |
| 1788383278 | 21.67° C | 64% | 1027 hPa | - | - | - | - |
| 1788382377 | 21.67° C | 63% | 1027.1 hPa | - | - | - | - |
| 1788381477 | 22.22° C | 63% | 1027 hPa | - | - | - | - |
* Rain since midnight (hover to see other rain measurements)
** Current wind speed in m/s (hover to see current wind gust speed)